#timestamp,LO_Frequency,Hit 
1600192815.7,286047000.3,N
1600192835.5,286047001.0,N
1600192855.4,286047002.7,N
1600192875.2,286047000.2,N
1600192895.0,286047002.3,N
1600192895.9,286047002.3,N
1600192915.8,286047002.4,N
1600192935.6,286047002.1,N
1600192955.4,286047002.3,N
1600192975.3,286046999.8,N
1600192995.1,286047000.1,N
1600193015.8,286047001.6,N
1600193035.7,286047004.4,N
1600193055.5,286047002.0,N
1600193075.3,286047004.3,N
1600193095.2,286046999.7,N
1600193115.9,286047001.7,N
1600193135.7,286047002.1,N
1600193155.6,286047002.1,N
1600193175.4,286047002.5,N
1600193195.2,286047002.8,N
1600193215.1,286047001.7,N
1600193216.0,286047001.7,N
1600193235.8,286047001.9,N
1600193255.6,286047004.0,N
1600193275.5,286047002.3,N
1600193295.3,286047001.6,N
1600193315.1,286047001.5,N
1600193335.9,286047002.1,N
1600193355.7,286046999.7,N
1600193375.5,286047002.6,N
1600193395.3,286047002.5,N
1600193415.2,286047002.3,N
1600193435.0,286047002.5,N
1600193435.9,286047002.5,N
1600193455.7,286047002.3,N
1600193475.6,286047002.4,N
1600193495.4,286047002.5,N
1600193515.2,286047000.3,N
1600193535.1,286046999.8,N
1600193536.0,286046999.8,N
1600193555.8,286047002.3,N
1600193575.6,286047002.5,N
1600193595.5,286047000.1,N
1600193615.3,286047002.8,N
1600193635.1,286047002.3,N
1600193655.9,286047002.1,N
1600193675.7,286047002.3,N
1600193695.5,286047001.6,N
1600193715.4,286047002.3,N
1600193735.2,286047002.4,N
1600193755.0,286047001.9,N
1600193755.9,286047001.9,N
1600193775.8,286047002.4,N
1600193795.6,286047002.3,N
1600193815.4,286047002.5,N
1600193835.3,286047002.5,N
1600193855.1,286046999.7,N
1600193856.0,286046999.7,N
1600193875.8,286046999.9,N
1600193895.7,286047000.9,N
1600193915.5,286047002.6,N
1600193935.3,286047000.9,N
1600193955.2,286047000.0,N
1600193975.9,286047000.5,N
1600193995.7,286047000.7,N
1600194015.5,286047000.0,N
1600194035.4,286046998.1,N
1600194055.2,286047000.8,N
1600194075.0,286047001.2,N
1600194075.9,286047001.2,N
1600194095.8,286046998.1,N
1600194115.6,286047001.2,N
1600194135.4,286046998.9,N
1600194155.3,286047000.6,N
1600194175.1,286047000.5,N
1600194195.8,286046998.2,N
1600194215.7,286046998.7,N
1600194235.5,286046999.4,N
1600194255.3,286047001.1,N
1600194275.2,286046999.2,N
1600194295.9,286046997.1,N
1600194315.7,286046998.8,N
1600194335.6,286046996.5,N
1600194355.4,286046999.3,N
1600194375.2,286046998.4,N
1600194395.1,286046999.2,N
1600194396.0,286046999.2,N
1600194415.8,286046999.1,N
1600194435.6,286046997.2,N
1600194455.5,286046996.9,N
1600194475.3,286046996.7,N
1600194495.1,286046999.2,N
1600194515.9,286046999.1,N
1600194535.7,286046999.4,N
1600194555.5,286046999.6,N
1600194575.3,286046999.1,N
1600194595.2,286046999.2,N
1600194615.0,286046999.1,N
1600194615.9,286046999.1,N
1600194635.7,286046999.3,N
1600194655.6,286046999.2,N
1600194675.4,286046999.2,N
1600194695.2,286046996.9,N
1600194715.1,286046996.7,N
1600194716.0,286046996.7,N
1600194735.8,286046999.0,N
1600194755.6,286046999.5,N
1600194775.5,286046996.9,N
1600194795.3,286046997.1,N
1600194815.1,286046999.5,N
1600194835.9,286046999.6,N
1600194855.7,286046997.0,N
1600194875.5,286046996.7,N
1600194895.4,286046997.7,N
1600194915.2,286046999.6,N
1600194935.0,286046999.2,N
1600194935.9,286046999.2,N
1600194955.8,286046996.6,P
1600194975.6,286047000.5,N
1600194995.4,286047001.1,N
1600195015.3,286047000.8,N
1600195035.1,286047001.1,N
1600195055.8,286047000.4,N
1600195075.7,286047000.7,N
1600195095.5,286047001.1,N
1600195115.3,286047000.6,N
1600195135.2,286047000.6,N
1600195155.9,286046998.8,N
1600195175.7,286046998.6,N
1600195195.6,286047000.8,N
1600195215.4,286047000.4,N
1600195235.2,286046998.8,N
1600195255.1,286047001.1,N
1600195256.0,286047001.1,N
1600195275.8,286047000.7,N
1600195295.6,286046999.8,N
1600195315.5,286046998.1,N
1600195335.3,286047001.0,N
1600195355.1,286047000.2,N
1600195375.9,286046998.1,N
1600195395.7,286047000.5,N
1600195415.5,286047001.1,N
1600195435.3,286046999.9,N
1600195455.2,286047000.7,N
1600195475.0,286047000.2,N
1600195475.9,286047000.2,N
1600195495.8,286047000.8,N
1600195515.6,286046998.6,N
1600195535.4,286047000.6,N
1600195555.2,286046998.3,N
1600195575.1,286047001.0,N
1600195576.0,286047001.0,N
1600195595.8,286047000.3,N
1600195615.6,286046998.6,N
1600195635.5,286046998.3,N
1600195655.3,286046998.5,N
1600195675.1,286046998.8,N
1600195695.9,286047001.0,N
1600195715.7,286046998.5,N
1600195735.5,286046999.3,N
1600195755.4,286046998.6,N
1600195775.2,286046998.6,N
1600195795.0,286047000.8,N
1600195795.9,286047000.8,N
1600195815.8,286046998.7,N
1600195835.6,286046998.4,N
1600195855.4,286046998.2,N
1600195875.3,286046999.1,N
1600195895.1,286046998.7,N
1600195896.0,286046998.7,N
1600195915.8,286046998.3,N
1600195935.7,286046999.5,N
1600195955.5,286046996.5,P
1600195975.3,286046998.3,N
1600195995.2,286046998.4,N
1600196015.9,286047000.5,N
1600196035.7,286046998.1,N
1600196055.6,286046998.5,N
1600196075.4,286046999.1,N
1600196095.2,286046998.5,N
1600196115.1,286046998.9,N
1600196116.0,286046998.9,N
1600196135.8,286047000.9,N
1600196155.6,286046998.2,N
1600196175.5,286046999.0,N
1600196195.3,286047000.7,N
1600196215.1,286046998.5,N
1600196235.9,286047000.7,N
1600196255.7,286047001.1,N
1600196275.5,286046998.1,N
1600196295.4,286046998.7,N
1600196315.2,286046998.7,N
1600196335.0,286046999.0,N
1600196335.9,286046999.0,N
1600196355.8,286046998.1,N
1600196375.6,286046999.0,N
1600196395.4,286047001.1,N
